Weather reports worldwide

Advertisment
Harsfjarden, Sweden (2489): temperature & dewpoint: 14.10.2019 04:00:00 - 20.10.2019 04:00:00 (CEST)Harsfjarden, Sweden (2489): wind speed & gusts: 14.10.2019 04:00:00 - 20.10.2019 04:00:00 (CEST)Harsfjarden, Sweden (2489): wind direction: 14.10.2019 04:00:00 - 20.10.2019 04:00:00 (CEST)Harsfjarden, Sweden (2489): reduced air pressure: 14.10.2019 04:00:00 - 20.10.2019 04:00:00 (CEST)Harsfjarden, Sweden (2489): visibility: 14.10.2019 04:00:00 - 20.10.2019 04:00:00 (CEST)Harsfjarden, Sweden (2489): precipitation: 14.10.2019 04:00:00 - 20.10.2019 04:00:00 (CEST)
Date & Time tt [°C] td [°C] ff [km/h] ff [kn] fx [km/h] fx [kn] dd ppp [hPa] vv [km] rr [mm]
20.10.2019 04:00:00 - - - - - - - - - -
20.10.2019 03:00:00 7,9 7,9 0 0 4 2 N 1010,9 11 0,1
20.10.2019 02:00:00 7,8 7,8 4 2 7 4 NNE 1010,7 12 0,0
20.10.2019 01:00:00 6,6 6,6 0 0 4 2 N 1010,8 8 0,0
20.10.2019 00:00:00 7,0 7,0 4 2 7 4 SW 1010,6 11 0,0
19.10.2019 23:00:00 7,2 7,2 0 0 4 2 N 1010,3 14 0,0
19.10.2019 22:00:00 7,0 7,0 0 0 7 4 N 1009,9 3,7 0,0
19.10.2019 21:00:00 8,3 8,2 4 2 14 8 SW 1009,6 17 0,0
19.10.2019 20:00:00 9,9 9,7 7 4 14 8 SSW 1009,2 22 0,0
19.10.2019 19:00:00 10,2 9,9 11 6 14 8 SSW 1008,6 25 0,0
19.10.2019 18:00:00 10,4 9,6 11 6 22 12 SSW 1008,1 30 0,0
19.10.2019 17:00:00 10,9 9,5 14 8 29 16 SW 1007,7 40 0,0
19.10.2019 16:00:00 11,2 9,6 18 10 29 16 SSW 1007,1 40 0,0
19.10.2019 15:00:00 11,8 9,7 18 10 32 18 SSW 1006,6 45 0,0
19.10.2019 14:00:00 12,1 9,8 18 10 40 21 SSW 1005,8 35 0,0
19.10.2019 13:00:00 11,6 9,3 25 14 40 21 SW 1005,8 45 0,0
19.10.2019 12:00:00 - - - - - - - - - -
19.10.2019 11:00:00 12,0 10,1 14 8 32 18 SW 1004,7 40 0,0
19.10.2019 10:00:00 11,3 9,9 18 10 32 18 SW 1004,3 35 0,0
19.10.2019 09:00:00 10,6 9,8 18 10 32 18 SW 1003,8 45 0,0
19.10.2019 08:00:00 9,9 9,7 11 6 25 14 SW 1003,3 45 0,0
19.10.2019 07:00:00 10,4 10,2 14 8 25 14 SW 1002,6 40 0,0
19.10.2019 06:00:00 11,2 11,2 14 8 32 18 SSW 1002,1 21 0,3
19.10.2019 05:00:00 11,0 11,0 22 12 32 18 S 1002,2 3,8 2,0
19.10.2019 04:00:00 10,9 10,9 18 10 29 16 S 1002,5 6 0,3
19.10.2019 03:00:00 10,8 10,8 18 10 22 12 SSE 1003,2 9 0,4
19.10.2019 02:00:00 11,1 11,1 14 8 22 12 S 1004,1 9 0,0
19.10.2019 01:00:00 11,0 11,0 14 8 25 14 S 1004,8 2,0 0,0
19.10.2019 00:00:00 11,3 11,3 18 10 29 16 S 1005,5 4,9 0,0
18.10.2019 23:00:00 11,3 11,3 18 10 25 14 S 1005,7 5 0,3
18.10.2019 22:00:00 10,9 10,9 14 8 22 12 SSE 1006,4 4,4 2,0
18.10.2019 21:00:00 10,5 10,5 14 8 22 12 ESE 1007,0 0,5 0,2
18.10.2019 20:00:00 10,2 10,2 4 2 11 6 E 1007,7 13 0,0
18.10.2019 19:00:00 10,1 9,8 4 2 11 6 E 1008,4 40 0,0
18.10.2019 18:00:00 10,0 9,8 4 2 7 4 ESE 1008,8 40 0,0
18.10.2019 17:00:00 10,8 10,0 0 0 7 4 N 1008,9 45 0,0
18.10.2019 16:00:00 11,1 9,8 4 2 11 6 SW 1009,3 45 0,0
18.10.2019 15:00:00 11,4 9,8 7 4 14 8 SW 1009,4 45 0,0
18.10.2019 14:00:00 11,4 10,5 11 6 14 8 SW 1009,6 45 0,0
18.10.2019 13:00:00 11,6 10,5 7 4 18 10 WSW 1009,7 45 0,0
18.10.2019 12:00:00 11,8 11,5 11 6 18 10 SW 1009,9 45 0,0
18.10.2019 11:00:00 11,1 - 14 8 18 10 SSW 1010,0 45 0,0
18.10.2019 10:00:00 10,8 - 11 6 18 10 SSW 1009,8 7 0,0
18.10.2019 09:00:00 10,7 - 7 4 11 6 S 1009,6 8 0,0
18.10.2019 08:00:00 10,1 10,1 7 4 14 8 SSE 1009,7 0,7 0,0
18.10.2019 07:00:00 9,8 9,8 11 6 14 8 SE 1009,8 1,3 0,0
18.10.2019 06:00:00 9,6 9,6 7 4 11 6 SE 1009,9 2,7 0,0
18.10.2019 05:00:00 9,5 9,5 7 4 11 6 SE 1010,2 1,6 0,0
18.10.2019 04:00:00 9,1 9,1 4 2 11 6 ESE 1010,4 7 0,1
18.10.2019 03:00:00 8,9 8,9 7 4 11 6 ESE 1010,7 5 0,0
18.10.2019 02:00:00 8,7 8,7 4 2 7 4 ESE 1010,9 30 0,0
18.10.2019 01:00:00 8,6 8,6 4 2 4 2 SSE 1011,1 19 0,0
18.10.2019 00:00:00 8,2 8,2 0 0 4 2 N 1011,1 8 0,0
17.10.2019 23:00:00 8,1 8,1 0 0 0 0 N 1011,3 10 0,0
17.10.2019 22:00:00 8,1 8,1 0 0 0 0 N 1011,2 12 0,0
17.10.2019 21:00:00 8,1 8,1 0 0 0 0 N 1011,0 15 0,0
17.10.2019 20:00:00 8,1 8,1 0 0 0 0 N 1011,0 13 0,0
17.10.2019 19:00:00 8,2 8,2 0 0 4 2 N 1010,9 16 0,0
17.10.2019 18:00:00 8,2 8,1 0 0 7 4 N 1010,6 26 0,0
17.10.2019 17:00:00 8,3 8,2 4 2 7 4 NNW 1010,4 22 0,0
17.10.2019 16:00:00 8,4 8,1 4 2 11 6 W 1010,2 21 0,0
17.10.2019 15:00:00 8,2 8,1 4 2 11 6 NNW 1009,5 28 0,0
17.10.2019 14:00:00 8,3 8,0 7 4 11 6 NNW 1009,3 28 0,0
17.10.2019 13:00:00 8,2 7,9 7 4 14 8 WNW 1009,0 30 0,0
17.10.2019 12:00:00 7,9 7,8 7 4 14 8 N 1008,4 45 0,0
17.10.2019 11:00:00 - - - - - - - - - -
17.10.2019 10:00:00 7,5 7,5 11 6 18 10 NNW 1007,2 40 0,0
17.10.2019 09:00:00 7,3 7,3 11 6 22 12 NNW 1007,0 16 0,5
17.10.2019 08:00:00 7,3 7,3 11 6 22 12 NNW 1006,4 29 0,0
17.10.2019 07:00:00 7,3 7,3 14 8 25 14 N 1005,6 50 0,1
17.10.2019 06:00:00 7,3 7,3 14 8 25 14 N 1005,6 14 1,0
17.10.2019 05:00:00 7,6 7,6 11 6 22 12 N 1005,6 4,4 0,0
17.10.2019 04:00:00 7,7 7,7 11 6 22 12 N 1005,6 5 0,0
17.10.2019 03:00:00 7,9 7,9 11 6 22 12 N 1005,7 5 0,0
17.10.2019 02:00:00 8,0 8,0 14 8 29 16 NNE 1005,6 3,7 0,0
17.10.2019 01:00:00 8,2 8,2 14 8 25 14 NNE 1005,7 4,0 0,0
17.10.2019 00:00:00 8,6 8,6 11 6 29 16 NNE 1005,7 3,9 0,0
16.10.2019 23:00:00 8,9 8,9 11 6 22 12 NNE 1005,8 3,9 0,0
16.10.2019 22:00:00 8,8 8,8 14 8 22 12 NNE 1005,7 5 0,0
16.10.2019 21:00:00 8,8 8,8 14 8 22 12 NNE 1006,0 4,9 0,0
16.10.2019 20:00:00 8,9 8,9 11 6 22 12 NE 1006,5 4,8 0,0
16.10.2019 19:00:00 9,2 9,2 11 6 22 12 NE 1006,8 5 0,1
16.10.2019 18:00:00 9,4 9,4 14 8 22 12 NE 1006,9 4,6 0,0
16.10.2019 17:00:00 9,5 9,5 7 4 22 12 NE 1006,7 5 0,0
16.10.2019 16:00:00 9,5 9,5 7 4 22 12 NE 1007,0 5 0,0
16.10.2019 15:00:00 - - - - - - - - - -
16.10.2019 14:00:00 - - - - - - - - - -
16.10.2019 13:00:00 - - - - - - - - - -
16.10.2019 12:00:00 - - - - - - - - - -
16.10.2019 11:00:00 - - - - - - - - - -
16.10.2019 10:00:00 - - - - - - - - - -
16.10.2019 09:00:00 - - - - - - - - - -
16.10.2019 08:00:00 - - - - - - - - - -
16.10.2019 07:00:00 - - - - - - - - - -
16.10.2019 06:00:00 - - - - - - - - - -
16.10.2019 05:00:00 10,1 10,1 4 2 11 6 E 1009,0 - 0,0
16.10.2019 04:00:00 10,1 10,1 4 2 14 8 NNE 1009,7 - 0,0
16.10.2019 03:00:00 10,3 10,0 4 2 14 8 ENE 1010,1 - 0,0
16.10.2019 02:00:00 10,4 10,1 4 2 14 8 S 1010,7 - 0,0
16.10.2019 01:00:00 10,4 10,1 7 4 14 8 ESE 1011,3 - 0,0
16.10.2019 00:00:00 10,4 9,9 4 2 22 12 ESE 1012,1 - 0,0
15.10.2019 23:00:00 10,4 9,9 11 6 25 14 ESE 1012,7 - 0,0
15.10.2019 22:00:00 10,4 9,9 18 10 25 14 SE 1013,3 - 0,0
15.10.2019 21:00:00 10,2 9,7 14 8 25 14 SE 1013,6 - 0,0
15.10.2019 20:00:00 9,9 9,6 14 8 25 14 ESE 1013,3 - 0,0
15.10.2019 19:00:00 9,1 9,1 4 2 22 12 E 1014,3 - 0,0
15.10.2019 18:00:00 9,5 9,0 7 4 18 10 SE 1014,9 - 0,0
15.10.2019 17:00:00 8,7 8,7 7 4 18 10 ENE 1015,5 - 0,1
15.10.2019 16:00:00 8,4 8,3 11 6 22 12 ENE 1016,0 - 0,3
15.10.2019 15:00:00 8,8 7,6 7 4 25 14 ENE 1017,2 - 0,0
15.10.2019 14:00:00 9,3 7,6 11 6 29 16 ESE 1017,5 0,1 0,0
15.10.2019 13:00:00 9,5 7,4 22 12 25 14 SE 1018,2 0,1 0,0
15.10.2019 12:00:00 9,6 8,0 18 10 29 16 SE 1018,5 0,1 0,0
15.10.2019 11:00:00 9,7 7,8 14 8 29 16 SE 1018,6 - 0,0
15.10.2019 10:00:00 9,3 7,6 7 4 18 10 E 1018,8 0,1 0,0
15.10.2019 09:00:00 9,1 7,9 11 6 18 10 SE 1019,2 0,1 0,0
15.10.2019 08:00:00 7,4 7,4 4 2 7 4 NE 1019,0 0,1 0,0
15.10.2019 07:00:00 6,6 6,6 0 0 4 2 N 1019,5 - 0,0
15.10.2019 06:00:00 - - - - - - - - - -
15.10.2019 05:00:00 6,6 6,6 4 2 4 2 NNE 1019,8 0,1 0,0
15.10.2019 04:00:00 6,5 6,5 0 0 7 4 N 1019,4 0,1 0,0
15.10.2019 03:00:00 6,4 6,4 4 2 11 6 NNE 1019,3 - 0,0
15.10.2019 02:00:00 6,2 6,2 7 4 14 8 NNE 1019,0 - 0,0
15.10.2019 01:00:00 6,1 6,1 11 6 14 8 N 1018,8 - 0,0
15.10.2019 00:00:00 5,8 5,8 7 4 14 8 N 1018,4 - 0,0
14.10.2019 23:00:00 5,6 5,6 7 4 14 8 N 1018,1 - 0,0
14.10.2019 22:00:00 5,2 5,2 4 2 7 4 NNW 1017,1 - 0,0
14.10.2019 21:00:00 5,9 5,9 4 2 7 4 N 1016,5 - 0,0
14.10.2019 20:00:00 5,6 5,6 4 2 7 4 N 1015,3 - 0,0
14.10.2019 19:00:00 7,8 7,4 4 2 14 8 NNW 1014,1 0,1 0,0
14.10.2019 18:00:00 8,8 8,0 4 2 14 8 N 1013,1 0,1 0,0
14.10.2019 17:00:00 9,2 8,3 7 4 18 10 N 1011,7 0,1 0,0
14.10.2019 16:00:00 9,2 8,6 11 6 25 14 N 1009,8 0,1 0,0
14.10.2019 15:00:00 9,3 8,7 11 6 22 12 NNE 1008,2 - 0,0
14.10.2019 14:00:00 9,1 8,5 11 6 29 16 NNE 1006,1 - 0,0
14.10.2019 13:00:00 9,1 9,0 14 8 32 18 NE 1004,3 - 0,1
14.10.2019 12:00:00 9,2 9,1 14 8 32 18 NE 1002,7 6 0,2
14.10.2019 11:00:00 9,0 9,0 14 8 29 16 NNE 1001,5 6 0,5
14.10.2019 10:00:00 8,7 8,7 14 8 22 12 NE 1000,4 6 0,6
14.10.2019 09:00:00 8,8 8,8 11 6 18 10 ENE 1000,3 4,5 1,0
14.10.2019 08:00:00 8,5 8,5 11 6 22 12 ENE 1000,3 6 2,0
14.10.2019 07:00:00 8,4 8,4 11 6 25 14 ENE 1001,4 9 0,6
14.10.2019 06:00:00 8,4 8,3 7 4 36 19 ESE 1002,1 10 0,2
14.10.2019 05:00:00 8,6 8,3 22 12 36 19 SE 1003,6 11 2,0
14.10.2019 04:00:00 9,4 9,3 18 10 29 16 SSE 1004,9 13 3,0

tt = temperature
td = dewpoint
ff = wind speed
fx = gusts
dd = wind direction
ppp = reduced air pressure
vv = visibility
rr = precipitation

Next stations